Location: Boiro
(42.6475°N, 8.8834°W)
Time: 13:03:26
(UTC+01:00)

Transit 4A - Pass Details

Date: 01 December 2021
Orbit: 863 x 981 km, 66.8° (Epoch: 26 January)

Event Time Altitude Azimuth Distance (km) Brightness Sun altitude
Exits shadow 07:18:45 20° 307° (NW) 2,043 9.1 -15.6°
Maximum altitude 07:22:35 42° 248° (WSW) 1,354 8.4 -14.9°
Drops below altitude 10° 07:28:31 10° 180° (S) 2,719 10.6 -13.9°
Sets 07:31:13 0° 174° (S) 3,667 11.3 -13.4°
